Weather History for K20V - February, 2014

Change the Weather History Date:

Monday, February 10, 2014

  Actual Average Record
Temperature  
Mean Temperature 24 °F -  
Max Temperature 33 °F - - ()
Min Temperature 14 °F - - ()
Degree Days  
Heating Degree Days 42    
Moisture  
Dew Point 22 °F    
Average Humidity 79    
Maximum Humidity 93    
Minimum Humidity 51    
Precipitation  
Precipitation 0.00 in - - ()
Sea Level Pressure  
Sea Level Pressure 30.03 in    
Wind  
Wind Speed 2 mph (ENE)    
Max Wind Speed 10 mph    
Max Gust Speed 17 mph    
Visibility 9 miles    
Events Rain , Snow    
T = Trace of Precipitation, MM = Missing Value Source: NWS Daily Summary

Daily Weather History Graph

Daily Weather History Graph

Search for Another Location

Airport or City:

Trip Planner

Search our weather history database for the weather conditions in past years. The results will help you decide how hot, cold, wet, or windy it might be!

Date:

Astronomy

Feb. 10, 2014 Rise Set
Actual Time 7:04 AM MST 5:35 PM MST
Civil Twilight 6:36 AM MST 6:03 PM MST
Nautical Twilight 6:04 AM MST 6:35 PM MST
Astronomical Twilight 5:32 AM MST 7:07 PM MST
Moon 2:06 PM MST (2/10) 3:59 AM MST (2/10)
Length of Visible Light 11h 27m
Length of Day
10h 31m
Waxing Gibbous, 85% of the Moon is Illuminated
Feb 10
Waxing Gibbous
Feb 14
Full
Feb 22
Last Quarter
Mar 1
New
Mar 8
First Quarter

Hourly Weather History & Observations

Time (MST) Temp. Windchill Dew Point Humidity Pressure Visibility Wind Dir Wind Speed Gust Speed Precip Events Conditions
12:15 AM 32.0 °F 25.6 °F 26.6 °F 80% 30.02 in 10.0 mi ESE 6.9 mph - N/A Snow Light Snow
12:34 AM 30.2 °F - 26.6 °F 86% 30.01 in 10.0 mi Calm Calm - N/A Snow Light Snow
12:54 AM 30.2 °F - 26.6 °F 86% 30.01 in 5.0 mi Calm Calm - N/A Snow Light Snow
1:14 AM 30.2 °F - 26.6 °F 86% 30.01 in 10.0 mi Calm Calm - N/A   Overcast
1:36 AM 30.2 °F - 26.6 °F 86% 30.01 in 10.0 mi Calm Calm - N/A Snow Light Snow
1:55 AM 30.2 °F - 26.6 °F 86% 30.01 in 10.0 mi Calm Calm - N/A   Overcast
2:16 AM 30.2 °F - 26.6 °F 86% 30.00 in 10.0 mi Calm Calm - N/A   Overcast
2:35 AM 30.2 °F - 26.6 °F 86% 30.00 in 10.0 mi Calm Calm - N/A   Overcast
2:56 AM 30.2 °F - 26.6 °F 86% 30.00 in 10.0 mi Calm Calm - N/A   Overcast
3:16 AM 30.2 °F - 26.6 °F 86% 30.00 in 7.0 mi Calm Calm - N/A Snow Light Snow
3:36 AM 28.4 °F - 24.8 °F 86% 30.00 in 10.0 mi Calm Calm - N/A   Overcast
3:55 AM 28.4 °F - 24.8 °F 86% 29.99 in 7.0 mi Calm Calm - N/A   Mostly Cloudy
4:16 AM 28.4 °F - 24.8 °F 86% 29.99 in 10.0 mi Calm Calm - N/A   Mostly Cloudy
4:36 AM 26.6 °F - 23.0 °F 86% 29.99 in 10.0 mi Calm Calm - N/A   Scattered Clouds
4:55 AM 26.6 °F - 23.0 °F 86% 29.98 in 10.0 mi Calm Calm - N/A   Scattered Clouds
5:14 AM 24.8 °F - 21.2 °F 86% 29.97 in 10.0 mi Calm Calm - N/A   Mostly Cloudy
5:36 AM 23.0 °F - 21.2 °F 93% 29.97 in 10.0 mi Calm Calm - N/A   Mostly Cloudy
5:56 AM 23.0 °F - 21.2 °F 93% 29.96 in 10.0 mi Calm Calm - N/A   Overcast
6:16 AM 23.0 °F - 21.2 °F 93% 29.96 in 10.0 mi Calm Calm - N/A   Overcast
6:34 AM 23.0 °F - 21.2 °F 93% 29.96 in 10.0 mi Calm Calm - N/A   Overcast
6:56 AM 23.0 °F 18.4 °F 21.2 °F 93% 29.96 in 10.0 mi SE 3.5 mph - N/A   Overcast
7:16 AM 26.6 °F 21.2 °F 23.0 °F 86% 29.96 in 10.0 mi SSE 4.6 mph - N/A   Overcast
7:36 AM 28.4 °F 24.6 °F 24.8 °F 86% 29.96 in 10.0 mi SE 3.5 mph - N/A Snow Light Snow
7:56 AM 26.6 °F - 23.0 °F 86% 29.97 in 7.0 mi Calm Calm - N/A Snow Light Snow
8:14 AM 28.4 °F - 24.8 °F 86% 29.97 in 7.0 mi Calm Calm - N/A Snow Light Snow
8:36 AM 28.4 °F - 24.8 °F 86% 29.98 in 7.0 mi Calm Calm - N/A Snow Light Snow
8:56 AM 30.2 °F - 26.6 °F 86% 29.98 in 10.0 mi Calm Calm - N/A   Overcast
9:16 AM 28.4 °F - 23.0 °F 80% 29.99 in 7.0 mi Calm Calm - N/A Snow Light Snow
9:34 AM 30.2 °F - 26.6 °F 86% 29.99 in 3.0 mi Calm Calm - N/A Rain Light Freezing Rain
9:56 AM 30.2 °F - 26.6 °F 86% 29.99 in 1.5 mi Calm Calm - N/A Snow Light Snow
10:16 AM 30.2 °F - 26.6 °F 86% 30.00 in 1.0 mi Calm Calm - N/A Snow Light Snow
10:34 AM 30.2 °F - 26.6 °F 86% 30.00 in 1.0 mi Calm Calm - N/A Snow Light Snow
10:54 AM 32.0 °F - 26.6 °F 80% 30.00 in 1.8 mi Calm Calm - N/A Snow Light Snow
11:15 AM 32.0 °F - 26.6 °F 80% 30.00 in 1.5 mi Calm Calm - N/A Snow Light Snow
11:34 AM 32.0 °F - 26.6 °F 80% 30.01 in 1.8 mi Calm Calm - N/A Snow Light Snow
11:56 AM 32.0 °F - 28.4 °F 87% 30.00 in 2.0 mi Calm Calm - N/A Snow Light Snow
12:15 PM 32.0 °F - 28.4 °F 87% 30.00 in 7.0 mi Calm Calm - N/A Snow Light Snow
12:34 PM 32.0 °F - 26.6 °F 80% 29.99 in 10.0 mi Calm Calm - N/A   Overcast
12:55 PM 33.8 °F - 28.4 °F 81% 29.99 in 10.0 mi Calm Calm - N/A   Overcast
1:16 PM 33.8 °F - 28.4 °F 81% 29.99 in 10.0 mi Calm Calm - N/A   Overcast
1:34 PM 32.0 °F - 28.4 °F 87% 29.99 in 10.0 mi Calm Calm - N/A   Overcast
1:56 PM 33.8 °F - 28.4 °F 81% 29.99 in 10.0 mi Calm Calm - N/A   Overcast
2:15 PM 33.8 °F - 28.4 °F 81% 29.99 in 10.0 mi Calm Calm - N/A   Overcast
2:35 PM 32.0 °F - 26.6 °F 80% 30.00 in 10.0 mi Calm Calm - N/A   Mostly Cloudy
2:55 PM 32.0 °F 28.7 °F 26.6 °F 80% 30.01 in 10.0 mi SE 3.5 mph - N/A   Mostly Cloudy
3:16 PM 33.8 °F 30.8 °F 24.8 °F 70% 30.02 in 10.0 mi NNE 3.5 mph - N/A   Overcast
3:34 PM 33.8 °F - 23.0 °F 65% 30.02 in 10.0 mi Calm Calm - N/A   Overcast
3:55 PM 33.8 °F 30.8 °F 21.2 °F 60% 30.04 in 10.0 mi West 3.5 mph - N/A   Overcast
4:16 PM 33.8 °F - 21.2 °F 60% 30.04 in 10.0 mi Calm Calm - N/A   Overcast
4:34 PM 32.0 °F 25.6 °F 19.4 °F 60% 30.05 in 10.0 mi WNW 6.9 mph - N/A   Overcast
4:56 PM 32.0 °F 24.2 °F 17.6 °F 55% 30.06 in 10.0 mi NW 9.2 mph 17.3 mph N/A   Scattered Clouds
5:14 PM 32.0 °F 23.6 °F 15.8 °F 51% 30.07 in 10.0 mi NNW 10.4 mph - N/A   Clear
5:36 PM 30.2 °F 21.9 °F 17.6 °F 60% 30.08 in 10.0 mi NNW 9.2 mph - N/A   Scattered Clouds
5:54 PM 30.2 °F 22.6 °F 17.6 °F 60% 30.09 in 10.0 mi NW 8.1 mph - N/A   Scattered Clouds
6:16 PM 30.2 °F 24.3 °F 17.6 °F 60% 30.09 in 10.0 mi NW 5.8 mph - N/A   Clear
6:36 PM 23.0 °F 18.4 °F 14.0 °F 68% 30.10 in 10.0 mi SE 3.5 mph - N/A   Clear
6:55 PM 23.0 °F 18.4 °F 14.0 °F 68% 30.11 in 10.0 mi North 3.5 mph - N/A   Clear
7:16 PM 21.2 °F - 14.0 °F 74% 30.12 in 10.0 mi Calm Calm - N/A   Clear
7:34 PM 19.4 °F - 12.2 °F 74% 30.12 in 10.0 mi Calm Calm - N/A   Clear
7:54 PM 19.4 °F - 12.2 °F 74% 30.12 in 10.0 mi Calm Calm - N/A   Clear
8:16 PM 21.2 °F 14.9 °F 12.2 °F 68% 30.13 in 10.0 mi NNE 4.6 mph - N/A   Clear
8:36 PM 23.0 °F 17.0 °F 12.2 °F 63% 30.13 in 10.0 mi SW 4.6 mph - N/A   Scattered Clouds
8:56 PM 19.4 °F - 10.4 °F 68% 30.13 in 10.0 mi Calm Calm - N/A   Overcast
9:16 PM 21.2 °F 14.9 °F 14.0 °F 74% 30.14 in 10.0 mi ESE 4.6 mph - N/A   Overcast
9:36 PM 21.2 °F - 14.0 °F 74% 30.14 in 10.0 mi Calm Calm - N/A   Overcast
9:56 PM 19.4 °F - 12.2 °F 74% 30.14 in 10.0 mi Calm Calm - N/A   Overcast
10:15 PM 19.4 °F 11.5 °F 12.2 °F 74% 30.15 in 10.0 mi ESE 5.8 mph - N/A   Overcast
10:36 PM 17.6 °F 9.3 °F 12.2 °F 79% 30.16 in 10.0 mi East 5.8 mph - N/A   Overcast
10:56 PM 17.6 °F 12.3 °F 10.4 °F 73% 30.16 in 10.0 mi NE 3.5 mph - N/A   Mostly Cloudy
11:16 PM 17.6 °F 12.3 °F 10.4 °F 73% 30.16 in 10.0 mi SE 3.5 mph - N/A   Mostly Cloudy
11:36 PM 14.0 °F - 10.4 °F 86% 30.16 in 10.0 mi Calm Calm - N/A   Scattered Clouds
11:54 PM 14.0 °F - 10.4 °F 86% 30.17 in 10.0 mi Calm Calm - N/A   Clear